Date String (YYYY-MM-DD hh:mm:ss) UTC,Instrument flags,Ambient pressure (hPa),Sample flow (lpm),Bypass flow (lpm),Sample temperature (°C),Ambient temperature (°C),ASC tube jacket temperature (°C),LED temperature (°C),Box temperature (°C),Sample RH (%),Span deviation,Mass concentration (μg/m³),Mass concentration (μg/m³),Mass concentration (μg/m³)
DateTimeUTC,F1_M11,P_M11,Q1_M11,Q2_M11,T1_M11,T2_M11,T3_M11,T4_M11,T5_M11,U1_M11,ZSPAN_M11,X2_M11,X0_M11,X1_M11
2022-10-26 20:00:00,,0818.7,4.99,0.00,26.0,24.9,00.0,34.7,28.0,14.3,0000.0,0004.71,0010.94,0004.07
2022-10-26 20:01:00,,0818.7,5.00,0.00,26.0,25.0,00.0,34.7,28.0,14.2,0000.0,0004.71,0010.16,0004.09
2022-10-26 20:02:00,,0818.7,5.00,0.00,26.1,25.0,00.0,34.7,28.1,14.3,0000.0,0004.74,0010.25,0004.11
2022-10-26 20:03:00,,0818.8,4.99,0.00,26.1,25.0,00.0,34.8,28.1,14.2,0000.0,0004.72,0010.14,0004.12
2022-10-26 20:04:00,,0818.8,5.00,0.00,26.1,25.0,00.0,34.8,28.1,14.2,0000.0,0004.72,0010.09,0004.13
2022-10-26 20:05:00,,0818.7,5.00,0.00,26.1,25.0,00.0,34.8,28.1,14.3,0000.0,0004.74,0009.66,0004.14
2022-10-26 20:06:00,,0818.7,5.00,0.00,26.1,25.1,00.0,34.8,28.1,14.3,0000.0,0004.77,0009.62,0004.15
2022-10-26 20:07:00,,0818.5,5.00,0.00,26.2,25.1,00.0,34.8,28.1,14.4,0000.0,0004.76,0009.65,0004.15
2022-10-26 20:08:00,,0818.6,5.00,0.00,26.2,25.1,00.0,34.8,28.2,14.2,0000.0,0004.86,0010.07,0004.18
2022-10-26 20:09:00,,0818.5,5.00,0.00,26.2,25.0,00.0,34.9,28.2,14.2,0000.0,0004.94,0010.68,0004.22
2022-10-26 20:10:00,,0818.5,4.99,0.00,26.2,25.0,00.0,34.9,28.2,14.2,0000.0,0004.97,0010.85,0004.27
2022-10-26 20:11:00,,0818.5,4.99,0.00,26.2,25.0,00.0,34.9,28.2,14.2,0000.0,0005.04,0011.48,0004.30
2022-10-26 20:12:00,,0818.5,5.00,0.00,26.2,25.1,00.0,34.9,28.2,14.2,0000.0,0005.09,0011.72,0004.33
2022-10-26 20:13:00,,0818.5,5.01,0.00,26.2,25.1,00.0,34.9,28.2,14.2,0000.0,0005.12,0012.08,0004.36
2022-10-26 20:14:00,,0818.5,5.00,0.00,26.2,25.1,00.0,34.9,28.2,14.1,0000.0,0005.16,0012.17,0004.41
2022-10-26 20:15:00,,0818.4,5.00,0.00,26.3,25.1,00.0,35.0,28.2,14.1,0000.0,0005.21,0012.33,0004.44
2022-10-26 20:16:00,,0818.4,4.99,0.00,26.3,25.1,00.0,35.0,28.2,14.2,0000.0,0005.24,0012.80,0004.46
2022-10-26 20:17:00,,0818.5,4.99,0.00,26.3,25.1,00.0,35.0,28.3,14.1,0000.0,0005.26,0013.15,0004.49
2022-10-26 20:18:00,,0818.6,4.99,0.00,26.3,25.1,00.0,35.0,28.3,14.1,0000.0,0005.32,0013.41,0004.52
2022-10-26 20:19:00,,0818.6,5.00,0.00,26.3,25.1,00.0,35.0,28.3,14.1,0000.0,0005.27,0013.19,0004.53
2022-10-26 20:20:00,,0818.7,4.99,0.00,26.3,25.1,00.0,35.0,28.3,14.1,0000.0,0005.23,0012.49,0004.53
2022-10-26 20:21:00,,0818.6,5.00,0.00,26.3,25.1,00.0,35.0,28.3,14.0,0000.0,0005.25,0012.59,0004.52
2022-10-26 20:22:00,,0818.5,5.01,0.00,26.3,25.2,00.0,35.0,28.3,14.0,0000.0,0005.22,0012.36,0004.52
2022-10-26 20:23:00,,0818.4,5.00,0.00,26.4,25.2,00.0,35.1,28.3,14.0,0000.0,0005.19,0012.40,0004.51
2022-10-26 20:24:00,,0818.5,5.00,0.00,26.4,25.2,00.0,35.1,28.3,14.2,0000.0,0005.22,0012.36,0004.49
2022-10-26 20:25:00,,0818.5,5.00,0.00,26.4,25.2,00.0,35.1,28.4,14.1,0000.0,0005.19,0012.79,0004.47
2022-10-26 20:26:00,,0818.6,5.00,0.00,26.4,25.2,00.0,35.1,28.4,14.1,0000.0,0005.14,0012.86,0004.44
2022-10-26 20:27:00,,0818.6,5.00,0.00,26.4,25.2,00.0,35.1,28.4,14.0,0000.0,0005.15,0012.55,0004.44
2022-10-26 20:28:00,,0818.6,5.00,0.00,26.4,25.2,00.0,35.1,28.4,14.1,0000.0,0005.11,0011.83,0004.42
2022-10-26 20:29:00,,0818.6,5.00,0.00,26.4,25.2,00.0,35.1,28.4,14.1,0000.0,0005.06,0011.64,0004.39
2022-10-26 20:30:00,,0818.5,5.00,0.00,26.5,25.2,00.0,35.2,28.4,14.0,0000.0,0005.05,0011.90,0004.34
2022-10-26 20:31:00,,0818.5,5.00,0.00,26.5,25.2,00.0,35.2,28.4,14.0,0000.0,0005.02,0012.63,0004.29
2022-10-26 20:32:00,,0818.5,4.99,0.00,26.5,25.2,00.0,35.2,28.4,14.0,0000.0,0004.96,0012.45,0004.27
2022-10-26 20:33:00,,0818.4,5.00,0.00,26.5,25.2,00.0,35.2,28.4,14.1,0000.0,0004.92,0012.59,0004.23
2022-10-26 20:34:00,,0818.5,5.00,0.00,26.5,25.2,00.0,35.2,28.4,14.1,0000.0,0004.94,0013.23,0004.21
2022-10-26 20:35:00,,0818.5,5.00,0.00,26.5,25.3,00.0,35.2,28.5,14.2,0000.0,0004.87,0013.42,0004.19
2022-10-26 20:36:00,,0818.4,5.00,0.00,26.5,25.3,00.0,35.2,28.5,14.0,0000.0,0004.88,0013.29,0004.19
2022-10-26 20:37:00,,0818.4,5.00,0.00,26.5,25.3,00.0,35.2,28.5,13.9,0000.0,0004.92,0013.40,0004.22
2022-10-26 20:38:00,,0818.4,5.00,0.00,26.5,25.3,00.0,35.2,28.5,13.9,0000.0,0004.91,0013.52,0004.22
2022-10-26 20:39:00,,0818.4,5.00,0.00,26.5,25.3,00.0,35.2,28.5,13.9,0000.0,0004.95,0014.27,0004.24
2022-10-26 20:40:00,,0818.4,5.00,0.00,26.5,25.3,00.0,35.3,28.5,13.9,0000.0,0004.99,0015.01,0004.28
2022-10-26 20:41:00,,0818.4,5.00,0.00,26.6,25.3,00.0,35.3,28.5,13.9,0000.0,0005.01,0015.26,0004.32
2022-10-26 20:42:00,,0818.4,5.00,0.00,26.6,25.3,00.0,35.3,28.5,13.9,0000.0,0005.02,0014.59,0004.36
2022-10-26 20:43:00,,0818.4,5.00,0.00,26.6,25.3,00.0,35.3,28.5,13.8,0000.0,0005.04,0014.72,0004.38
2022-10-26 20:44:00,,0818.4,5.00,0.00,26.6,25.3,00.0,35.3,28.5,13.8,0000.0,0005.10,0015.16,0004.42
2022-10-26 20:45:00,,0818.3,5.00,0.00,26.6,25.4,00.0,35.3,28.5,13.8,0000.0,0005.14,0014.59,0004.45
2022-10-26 20:46:00,,0818.3,4.99,0.00,26.6,25.4,00.0,35.3,28.5,14.0,0000.0,0005.16,0014.15,0004.46
2022-10-26 20:47:00,,0818.2,5.00,0.00,26.6,25.4,00.0,35.3,28.6,13.9,0000.0,0005.13,0013.63,0004.45
2022-10-26 20:48:00,,0818.2,5.00,0.00,26.6,25.4,00.0,35.3,28.6,13.9,0000.0,0005.13,0013.29,0004.42
2022-10-26 20:49:00,,0818.1,5.00,0.00,26.7,25.4,00.0,35.4,28.6,13.8,0000.0,0005.10,0013.28,0004.41
2022-10-26 20:50:00,,0818.0,5.00,0.00,26.7,25.4,00.0,35.4,28.6,13.8,0000.0,0005.10,0013.05,0004.41
2022-10-26 20:51:00,,0818.0,4.99,0.00,26.7,25.4,00.0,35.4,28.6,13.8,0000.0,0005.08,0013.20,0004.40
2022-10-26 20:52:00,,0818.1,5.00,0.00,26.7,25.4,00.0,35.4,28.6,14.0,0000.0,0005.06,0012.85,0004.38
2022-10-26 20:53:00,,0818.1,5.00,0.00,26.7,25.5,00.0,35.4,28.7,14.1,0000.0,0005.03,0012.77,0004.35
2022-10-26 20:54:00,,0818.2,5.00,0.00,26.7,25.5,00.0,35.4,28.7,14.0,0000.0,0005.03,0012.68,0004.34
2022-10-26 20:55:00,,0818.2,5.02,0.00,26.7,25.5,00.0,35.4,28.7,14.0,0000.0,0005.02,0011.60,0004.33
2022-10-26 20:56:00,,0818.2,5.01,0.00,26.7,25.5,00.0,35.4,28.7,14.1,0000.0,0004.97,0011.31,0004.31
2022-10-26 20:57:00,,0818.2,4.99,0.00,26.7,25.5,00.0,35.4,28.7,14.2,0000.0,0004.93,0011.39,0004.30
2022-10-26 20:58:00,,0818.2,5.00,0.00,26.7,25.5,00.0,35.4,28.7,14.2,0000.0,0004.97,0011.76,0004.30
2022-10-26 20:59:00,,0818.2,4.99,0.00,26.8,25.5,00.0,35.5,28.7,14.0,0000.0,0004.96,0012.98,0004.30
